FW0043 Weather Reports


time (UTC)temp
C
wind
direction
speed
KPH
gust
KPH
rain 1hr
cm
rain 24hr
cm
rain mn
cm
humidity
%
barometer
mb
20260506062148 18 77 0.0 4.8 0.00 0.00 0.00 74 1015.0
20260506061547 18 46 0.0 3.2 0.00 0.00 0.00 73 1014.7
20260506061047 18 60 0.0 4.8 0.00 0.00 0.00 72 1014.7
20260506060544 18 181 0.0 4.8 0.00 0.00 0.00 71 1014.7
20260506051041 19 51 0.0 1.6 0.00 0.00 0.00 61 1015.1
20260506050541 19 51 0.0 1.6 0.00 0.00 0.00 61 1015.1
20260506045038 19 51 0.0 3.2 0.00 0.00 0.00 61 1015.1
20260506044538 19 50 0.0 3.2 0.00 0.00 0.00 61 1015.2
20260506044036 18 51 0.0 1.6 0.00 0.00 0.00 62 1015.4
20260506043535 18 51 0.0 1.6 0.00 0.00 0.00 63 1015.4
20260506043034 18 51 0.0 1.6 0.00 0.00 0.00 64 1015.4
20260506042533 18 51 0.0 0.0 0.00 0.00 0.00 63 1015.3
20260506042033 18 51 0.0 1.6 0.00 0.00 0.00 62 1015.3
20260506041532 18 51 0.0 1.6 0.00 0.00 0.00 62 1015.3
20260506041031 18 51 0.0 1.6 0.00 0.00 0.00 62 1015.4
20260506040530 18 51 0.0 1.6 0.00 0.00 0.00 61 1015.4
20260506040030 18 51 0.0 1.6 0.00 0.00 0.00 61 1015.2
20260506035530 18 51 0.0 1.6 0.00 0.00 0.00 62 1015.2
20260506035030 18 51 0.0 1.6 0.00 0.00 0.00 62 1015.5
20260506034531 18 51 0.0 0.0 0.00 0.00 0.00 61 1015.2
20260506034029 19 51 0.0 0.0 0.00 0.00 0.00 61 1015.3
20260506033529 19 51 0.0 0.0 0.00 0.00 0.00 60 1015.2
20260506033029 19 51 0.0 1.6 0.00 0.00 0.00 60 1015.2
20260506032528 19 51 0.0 1.6 0.00 0.00 0.00 59 1015.3
20260506032028 20 51 0.0 1.6 0.00 0.00 0.00 59 1015.3
20260506031528 20 51 0.0 1.6 0.00 0.00 0.00 59 1015.4
20260506031028 20 51 0.0 1.6 0.00 0.00 0.00 59 1015.3
20260506030527 20 51 0.0 1.6 0.00 0.00 0.00 60 1015.4
20260506030037 20 51 0.0 1.6 0.00 0.00 0.00 60 1015.2
20260506025527 20 51 0.0 1.6 0.00 0.00 0.00 61 1015.2
20260506025027 20 51 0.0 1.6 0.00 0.00 0.00 61 1015.2
20260506024552 20 51 0.0 0.0 0.00 0.00 0.00 61 1015.1
20260506024028 20 51 0.0 1.6 0.00 0.00 0.00 61 1015.2
20260506023527 20 51 0.0 1.6 0.00 0.00 0.00 61 1015.4
20260506023028 20 51 0.0 3.2 0.00 0.00 0.00 61 1015.5
20260506022526 20 51 0.0 3.2 0.00 0.00 0.00 61 1015.3
20260506022026 20 51 0.0 3.2 0.00 0.00 0.00 61 1015.2
20260506021528 20 51 0.0 1.6 0.00 0.00 0.00 61 1015.2
20260506021028 20 51 0.0 1.6 0.00 0.00 0.00 62 1015.1
20260506020525 20 51 0.0 3.2 0.00 0.00 0.00 62 1015.1
20260506020026 20 51 0.0 3.2 0.00 0.00 0.00 62 1015.1
20260506015526 20 51 0.0 1.6 0.00 0.00 0.00 62 1014.8
20260506015027 20 51 0.0 1.6 0.00 0.00 0.00 62 1014.8
20260506014525 20 51 0.0 1.6 0.00 0.00 0.00 62 1014.8
20260506014025 20 51 0.0 1.6 0.00 0.00 0.00 63 1014.8
20260506013525 20 51 0.0 0.0 0.00 0.00 0.00 62 1014.8
20260506013037 20 51 0.0 1.6 0.00 0.00 0.00 61 1014.7
20260506012525 20 51 0.0 1.6 0.00 0.00 0.00 61 1014.9
20260506012024 20 51 0.0 1.6 0.00 0.00 0.00 59 1014.7
20260506011524 21 51 0.0 1.6 0.00 0.00 0.00 58 1014.7
20260506011025 21 51 0.0 0.0 0.00 0.00 0.00 58 1014.7
20260506010524 21 51 0.0 0.0 0.00 0.00 0.00 57 1014.8
20260506010026 21 51 0.0 0.0 0.00 0.00 0.00 56 1014.6
20260506005524 21 51 0.0 0.0 0.00 0.00 0.00 56 1014.8
20260506005023 22 51 0.0 1.6 0.00 0.00 0.00 55 1014.9
20260506004523 22 51 0.0 1.6 0.00 0.00 0.00 54 1014.8
20260506004023 22 51 0.0 1.6 0.00 0.00 0.00 53 1014.8
20260506003523 22 51 0.0 1.6 0.00 0.00 0.00 53 1014.8
20260506003023 22 51 0.0 0.0 0.00 0.00 0.00 52 1014.8
20260506002522 23 51 0.0 1.6 0.00 0.00 0.00 51 1014.7
20260506002022 23 51 0.0 1.6 0.00 0.00 0.00 51 1014.7
20260506001523 23 51 0.0 1.6 0.00 0.00 0.00 50 1014.5
20260506001023 23 51 0.0 1.6 0.00 0.00 0.00 50 1014.4
20260506000523 24 51 0.0 1.6 0.00 0.00 0.00 49 1014.4
20260506000022 24 51 0.0 1.6 0.00 0.00 0.00 49 1014.4
20260505235522 24 51 0.0 1.6 0.00 0.00 0.00 48 1014.3
20260505235024 25 51 0.0 3.2 0.00 0.00 0.00 48 1014.2
20260505234529 25 51 0.0 3.2 0.00 0.00 0.00 47 1014.1
20260505234021 25 51 0.0 3.2 0.00 0.00 0.00 47 1014.1
20260505233524 25 58 0.0 3.2 0.00 0.00 0.00 46 1014.2
20260505233022 25 39 0.0 4.8 0.00 0.00 0.00 46 1014.2
20260505232521 25 56 0.0 6.4 0.00 0.00 0.00 46 1014.2
20260505232021 26 41 1.6 6.4 0.00 0.00 0.00 45 1014.2
20260505231521 26 50 0.0 6.4 0.00 0.00 0.00 45 1014.2
20260505231024 26 49 1.6 6.4 0.00 0.00 0.00 44 1014.2
20260505230520 26 72 0.0 8.0 0.00 0.00 0.00 45 1014.2
20260505230037 26 53 1.6 8.0 0.00 0.00 0.00 44 1014.3
20260505225520 26 59 1.6 4.8 0.00 0.00 0.00 44 1014.2
20260505225020 26 47 0.0 4.8 0.00 0.00 0.00 45 1014.0
20260505224519 26 37 1.6 8.0 0.00 0.00 0.00 44 1013.9
20260505224019 26 64 1.6 8.0 0.00 0.00 0.00 44 1013.9
20260505223518 26 359 1.6 8.0 0.00 0.00 0.00 43 1014.2
20260505223018 26 53 1.6 8.0 0.00 0.00 0.00 43 1014.3
20260505222518 26 54 4.8 8.0 0.00 0.00 0.00 43 1014.1
20260505222018 27 59 1.6 8.0 0.00 0.00 0.00 43 1014.2
20260505221519 27 327 1.6 9.7 0.00 0.00 0.00 43 1014.2
20260505221017 27 65 1.6 8.0 0.00 0.00 0.00 44 1014.2
20260505220517 27 321 0.0 8.0 0.00 0.00 0.00 44 1014.3
20260505220016 27 18 1.6 8.0 0.00 0.00 0.00 43 1014.3
20260505215515 27 37 3.2 8.0 0.00 0.00 0.00 43 1014.4
20260505215015 27 58 3.2 6.4 0.00 0.00 0.00 43 1014.4
20260505214518 27 56 1.6 9.7 0.00 0.00 0.00 44 1014.4
20260505214014 27 311 3.2 9.7 0.00 0.00 0.00 42 1014.3
20260505213514 27 63 3.2 11.3 0.00 0.00 0.00 43 1014.5
20260505213014 27 92 6.4 11.3 0.00 0.00 0.00 42 1014.5
20260505212517 28 346 0.0 8.0 0.00 0.00 0.00 44 1014.4
20260505212114 28 58 3.2 8.0 0.00 0.00 0.00 42 1014.4
20260505211514 27 269 0.0 6.4 0.00 0.00 0.00 45 1014.5
20260505211013 27 50 1.6 8.0 0.00 0.00 0.00 45 1014.5
20260505210516 27 58 1.6 9.7 0.00 0.00 0.00 44 1014.5
20260505210013 27 77 3.2 9.7 0.00 0.00 0.00 43 1014.4
20260505205513 27 45 3.2 9.7 0.00 0.00 0.00 44 1014.5
20260505205014 27 51 1.6 9.7 0.00 0.00 0.00 44 1014.6
20260505204512 27 49 1.6 14.5 0.00 0.00 0.00 45 1014.7
20260505204011 28 58 3.2 14.5 0.00 0.00 0.00 43 1014.8
20260505203511 28 31 1.6 12.9 0.00 0.00 0.00 43 1014.9
20260505203012 28 41 3.2 12.9 0.00 0.00 0.00 43 1014.9
20260505202511 28 46 1.6 9.7 0.00 0.00 0.00 43 1014.9
20260505202010 28 43 3.2 8.0 0.00 0.00 0.00 43 1014.8
20260505201510 27 63 3.2 9.7 0.00 0.00 0.00 45 1014.8
20260505201009 28 83 3.2 8.0 0.00 0.00 0.00 43 1014.9
20260505200509 28 60 1.6 9.7 0.00 0.00 0.00 45 1015.0
20260505200020 28 328 0.0 9.7 0.00 0.00 0.00 44 1015.1
20260505195507 27 307 3.2 9.7 0.00 0.00 0.00 45 1015.1
20260505195007 27 77 4.8 9.7 0.00 0.00 0.00 44 1015.2
20260505194507 27 27 4.8 9.7 0.00 0.00 0.00 42 1015.4
20260505194007 27 239 0.0 8.0 0.00 0.00 0.00 46 1015.5
20260505193506 27 75 3.2 11.3 0.00 0.00 0.00 45 1015.5
20260505193004 27 22 1.6 11.3 0.00 0.00 0.00 44 1015.6
20260505192503 27 320 0.0 8.0 0.00 0.00 0.00 44 1015.8
20260505192004 27 49 0.0 12.9 0.00 0.00 0.00 44 1015.8
20260505191503 28 49 4.8 12.9 0.00 0.00 0.00 43 1016.0
20260505191003 28 323 1.6 6.4 0.00 0.00 0.00 43 1015.9
20260505190502 28 316 1.6 9.7 0.00 0.00 0.00 45 1016.0
20260505190100 28 315 1.6 9.7 0.00 0.00 0.00 46 1016.0
20260505185603 27 55 1.6 9.7 0.00 0.00 0.00 44 1016.1
20260505185059 27 280 3.2 9.7 0.00 0.00 0.00 43 1016.2
20260505184558 27 45 3.2 11.3 0.00 0.00 0.00 44 1016.4
20260505184059 27 41 3.2 11.3 0.00 0.00 0.00 43 1016.5
20260505183558 27 42 1.6 9.7 0.00 0.00 0.00 45 1016.5
20260505183105 27 41 0.0 11.3 0.00 0.00 0.00 44 1016.7
20260505182558 28 58 3.2 11.3 0.00 0.00 0.00 42 1016.7
20260505182057 27 82 3.2 11.3 0.00 0.00 0.00 45 1016.7
20260505181557 27 86 3.2 17.7 0.00 0.00 0.00 46 1016.8
20260505181058 27 55 8.0 17.7 0.00 0.00 0.00 44 1016.7
20260505180556 28 32 1.6 12.9 0.00 0.00 0.00 46 1016.9
20260505180056 28 293 1.6 9.7 0.00 0.00 0.00 44 1017.0
20260505175556 28 318 1.6 9.7 0.00 0.00 0.00 46 1017.0
20260505175057 28 297 3.2 8.0 0.00 0.00 0.00 46 1016.9
20260505174558 27 333 1.6 8.0 0.00 0.00 0.00 47 1017.0
20260505174054 27 51 0.0 11.3 0.00 0.00 0.00 46 1017.0
20260505173557 27 15 3.2 11.3 0.00 0.00 0.00 48 1017.1
20260505173054 27 90 3.2 12.9 0.00 0.00 0.00 47 1017.0
20260505172554 27 217 4.8 12.9 0.00 0.00 0.00 47 1017.1
20260505172053 27 62 4.8 9.7 0.00 0.00 0.00 45 1017.3
20260505171553 27 63 1.6 9.7 0.00 0.00 0.00 45 1017.1
20260505171055 27 35 1.6 6.4 0.00 0.00 0.00 45 1017.1
20260505170551 27 121 1.6 12.9 0.00 0.00 0.00 45 1017.2
20260505170052 27 54 1.6 12.9 0.00 0.00 0.00 43 1017.3
20260505165551 27 34 3.2 9.7 0.00 0.00 0.00 46 1017.5
20260505165049 27 30 1.6 6.4 0.00 0.00 0.00 46 1017.6
20260505164559 26 34 3.2 8.0 0.00 0.00 0.00 47 1017.6
20260505164049 26 33 3.2 8.0 0.00 0.00 0.00 47 1017.5
20260505163549 26 48 1.6 8.0 0.00 0.00 0.00 48 1017.7
20260505163055 26 71 1.6 8.0 0.00 0.00 0.00 49 1017.7
20260505162552 26 55 3.2 8.0 0.00 0.00 0.00 46 1017.7
20260505162048 27 74 3.2 6.4 0.00 0.00 0.00 45 1017.6
20260505161547 27 20 1.6 4.8 0.00 0.00 0.00 48 1017.6
20260505161046 26 105 1.6 6.4 0.00 0.00 0.00 49 1017.5
20260505160546 26 77 1.6 4.8 0.00 0.00 0.00 47 1017.6
20260505153059 26 46 0.0 6.4 0.00 0.00 0.00 48 1017.9
20260505152542 26 276 1.6 4.8 0.00 0.00 0.00 49 1018.0
20260505152041 26 172 0.0 4.8 0.00 0.00 0.00 48 1017.8
20260505151550 26 82 0.0 4.8 0.00 0.00 0.00 49 1018.0
20260505151039 25 299 0.0 3.2 0.00 0.00 0.00 53 1017.9
20260505150540 25 277 0.0 3.2 0.00 0.00 0.00 53 1018.0
20260505140527 22 125 0.0 6.4 0.00 0.00 0.00 61 1017.7
20260505125011 18 62 0.0 3.2 0.00 0.00 0.00 77 1017.4
20260505124510 17 41 0.0 3.2 0.00 0.00 0.00 78 1017.6
20260505124012 17 53 0.0 3.2 0.00 0.00 0.00 80 1017.6
20260505123507 16 291 0.0 1.6 0.00 0.00 0.00 87 1017.4
20260505123005 15 292 0.0 1.6 0.00 0.00 0.00 89 1017.4
20260505122504 15 291 0.0 1.6 0.00 0.00 0.00 91 1017.4
20260505122003 14 291 0.0 1.6 0.00 0.00 0.00 91 1017.4
20260505121503 13 293 0.0 1.6 0.00 0.00 0.00 91 1017.3
20260505121002 13 293 0.0 1.6 0.00 0.00 0.00 92 1017.2
20260505120500 13 293 0.0 1.6 0.00 0.00 0.00 92 1017.1
20260505120001 13 293 0.0 1.6 0.00 0.00 0.00 92 1017.1
20260505115500 13 293 0.0 1.6 0.00 0.00 0.00 92 1017.1
20260505115001 12 293 0.0 1.6 0.00 0.00 0.00 92 1017.1
20260505114602 12 288 0.0 0.0 0.00 0.00 0.00 91 1017.0
20260505114105 12 288 0.0 1.6 0.00 0.00 0.00 91 1017.1
20260505113603 12 288 0.0 1.6 0.00 0.00 0.00 91 1017.0
20260505113102 12 53 0.0 0.0 0.00 0.00 0.00 91 1017.0
20260505112558 12 53 0.0 0.0 0.00 0.00 0.00 90 1016.9
20260505112058 12 53 0.0 1.6 0.00 0.00 0.00 90 1016.9
20260505111600 12 53 0.0 1.6 0.00 0.00 0.00 89 1016.9
20260505111100 12 53 0.0 0.0 0.00 0.00 0.00 89 1016.8
20260505110557 12 53 0.0 0.0 0.00 0.00 0.00 89 1016.8
20260505110105 12 53 0.0 0.0 0.00 0.00 0.00 88 1016.7
20260505102058 13 48 0.0 1.6 0.00 0.00 0.00 86 1016.5
20260505101602 13 48 0.0 3.2 0.00 0.00 0.00 86 1016.4
20260505101055 13 48 0.0 3.2 0.00 0.00 0.00 86 1016.4
20260505100555 13 46 0.0 3.2 0.00 0.00 0.00 86 1016.4
20260505100056 13 45 0.0 3.2 0.00 0.00 0.00 86 1016.4
20260505095557 13 54 0.0 4.8 0.00 0.00 0.00 86 1016.3
20260505095054 13 56 0.0 4.8 0.00 0.00 0.00 86 1016.4
20260505094558 13 41 1.6 4.8 0.00 0.00 0.00 86 1016.5
20260505094053 13 46 1.6 3.2 0.00 0.00 0.00 86 1016.7
20260505093554 13 59 0.0 3.2 0.00 0.00 0.00 86 1016.8
20260505093053 13 59 0.0 1.6 0.00 0.00 0.00 85 1016.8
20260505092552 13 59 0.0 1.6 0.00 0.00 0.00 85 1016.9
20260505092052 13 59 0.0 1.6 0.00 0.00 0.00 85 1016.8
20260505091558 13 59 0.0 1.6 0.00 0.00 0.00 84 1016.9
20260505091051 13 59 0.0 1.6 0.00 0.00 0.00 84 1016.8
20260505090551 13 59 0.0 1.6 0.00 0.00 0.00 84 1016.9
20260505090058 13 66 0.0 3.2 0.00 0.00 0.00 83 1016.9
20260505085550 13 75 0.0 3.2 0.00 0.00 0.00 83 1016.9
20260505085051 13 53 0.0 1.6 0.00 0.00 0.00 83 1016.8
20260505084550 13 53 0.0 1.6 0.00 0.00 0.00 82 1016.9
20260505084048 13 53 0.0 1.6 0.00 0.00 0.00 82 1017.0
20260505083547 13 53 0.0 1.6 0.00 0.00 0.00 81 1016.9
20260505083051 13 53 0.0 1.6 0.00 0.00 0.00 81 1016.8
20260505082547 13 54 0.0 1.6 0.00 0.00 0.00 81 1016.8
20260505082049 13 54 0.0 1.6 0.00 0.00 0.00 80 1016.8
20260505081558 14 54 0.0 3.2 0.00 0.00 0.00 80 1016.9
20260505081047 14 55 0.0 3.2 0.00 0.00 0.00 80 1016.8
20260505080546 14 49 0.0 3.2 0.00 0.00 0.00 80 1016.8
20260505080049 14 52 0.0 3.2 0.00 0.00 0.00 80 1016.8
20260505075549 14 55 0.0 3.2 0.00 0.00 0.00 79 1016.7
20260505075045 14 55 0.0 3.2 0.00 0.00 0.00 78 1016.7
20260505074604 14 54 1.6 3.2 0.00 0.00 0.00 78 1016.8
20260505074046 14 54 0.0 3.2 0.00 0.00 0.00 78 1016.6
20260505073545 15 54 0.0 1.6 0.00 0.00 0.00 77 1016.5
20260505073051 15 54 0.0 3.2 0.00 0.00 0.00 77 1016.6
20260505072544 15 49 0.0 4.8 0.00 0.00 0.00 76 1016.5
20260505072044 15 46 1.6 4.8 0.00 0.00 0.00 76 1016.4
20260505071544 15 41 0.0 4.8 0.00 0.00 0.00 76 1016.4
20260505071043 15 46 0.0 3.2 0.00 0.00 0.00 75 1016.5
20260505070543 15 37 0.0 3.2 0.00 0.00 0.00 75 1016.5